GROUP/SHIP,CRUISE_DESIGNATION,JD_GMT,DATE_DDMMYYYY,TIME_HH:MM:SS,LAT_DEC_DEGREE,LONG_DEC_DEGREE,xCO2W_PPM,xCO2A_PPM,PRES_EQUIL_hPa,PRES_SEALEVEL_hPa,EqTEMP_C,SST(TSG)_C,SAL(TSG)_PERMIL,WATER_FLOW_L/MIN,GAS_FLOW_IR_ML/MIN,TEMP_IR_C,PRES_IR_hPa,SHIP_HEADING_TRUE_DEGREE,SHIP_SPEED_KNOT,WIND_DIR_REL_DEGREE,WIND_SPEED_REL_M/S,fCO2W@SST_uATM,QC_FLAG_WATER,fCO2A_uATM,QC_FLAG_AIR,dfCO2_uATM,FLUORO_uG/L,WIND_SPEED_TRUE_M/S,WIND_DIR_TRUE_DEGREE,AIR_TEMP_C
AOML_Brown,RB200306,252.679,09092003,16:17:06,26.267,-83.704,398.36,378.95,1015.86,-9,29.19,29.15,34.90,11.34,246.78,31.32,1015.86,-9,-9,187.80,2.29,382.13,2,363.91,2,18.22,0.65,2.29,60.50,-9
AOML_Brown,RB200306,252.682,09092003,16:21:46,26.267,-83.704,398.60,378.95,1015.85,-9,29.21,29.17,34.91,11.45,248.21,31.30,1015.85,-9,-9,207.20,5.29,382.30,2,363.91,2,18.39,0.64,5.29,79.00,-9
AOML_Brown,RB200306,252.685,09092003,16:26:06,26.267,-83.703,398.73,378.95,1015.87,-9,29.21,29.18,34.92,11.50,250.35,31.28,1015.87,-9,-9,208.10,5.09,382.53,2,363.91,2,18.61,0.64,5.09,78.50,-9
AOML_Brown,RB200306,252.688,09092003,16:30:46,26.267,-83.703,398.84,378.95,1015.84,-9,29.23,29.18,34.92,11.46,250.97,31.27,1015.84,-9,-9,217.60,4.10,382.39,2,363.91,2,18.48,0.63,4.10,89.60,-9
AOML_Brown,RB200306,252.699,09092003,16:47:06,26.267,-83.703,398.91,378.95,1015.69,-9,29.25,29.21,34.94,11.44,244.10,31.25,1015.69,-9,-9,200.70,3.60,382.47,2,363.91,2,18.55,0.64,3.60,71.50,-9
AOML_Brown,RB200306,252.703,09092003,16:51:46,26.267,-83.703,399.17,378.95,1015.53,-9,29.23,29.21,34.94,11.34,245.98,31.26,1015.53,-9,-9,185.90,0.90,382.99,2,363.91,2,19.07,0.65,0.90,55.90,-9
AOML_Brown,RB200306,252.706,09092003,16:56:06,26.267,-83.703,399.35,378.95,1015.55,-9,29.25,29.22,34.95,11.39,246.80,31.23,1015.55,-9,-9,205.80,4.10,382.91,2,363.91,2,18.99,0.65,4.10,75.60,-9
AOML_Brown,RB200306,252.709,09092003,17:00:46,26.267,-83.703,399.46,378.95,1015.50,-9,29.27,29.23,34.95,11.35,250.18,31.22,1015.50,-9,-9,186.70,1.80,382.93,2,363.91,2,19.01,0.65,1.80,58.60,-9
AOML_Brown,RB200306,252.720,09092003,17:17:06,26.267,-83.703,399.90,378.92,1015.51,-9,29.28,29.26,34.97,11.37,244.49,31.20,1015.51,-9,-9,187.00,3.49,383.56,2,363.63,2,19.94,0.65,3.49,57.40,-9
AOML_Brown,RB200306,252.723,09092003,17:21:46,26.267,-83.703,400.14,378.92,1015.53,-9,29.33,29.29,34.98,11.39,247.45,31.20,1015.53,-9,-9,180.20,1.30,383.53,2,363.63,2,19.90,0.65,1.30,51.10,-9
AOML_Brown,RB200306,252.726,09092003,17:26:06,26.267,-83.703,400.49,378.92,1015.45,-9,29.34,29.32,34.99,11.41,247.86,31.19,1015.45,-9,-9,208.90,2.99,384.07,2,363.63,2,20.44,0.64,2.99,74.30,-9
AOML_Brown,RB200306,252.730,09092003,17:30:46,26.267,-83.703,400.78,378.92,1015.44,-9,29.36,29.34,35.00,11.37,246.34,31.17,1015.44,-9,-9,204.90,3.30,384.40,2,363.63,2,20.77,0.64,3.30,74.70,-9
AOML_Brown,RB200306,252.741,09092003,17:47:06,26.267,-83.703,401.26,378.92,1015.25,-9,29.40,29.36,35.03,11.19,244.63,31.35,1015.25,-9,-9,144.00,1.20,384.35,2,363.63,2,20.73,0.64,1.20,13.70,-9
AOML_Brown,RB200306,252.744,09092003,17:51:46,26.267,-83.703,401.54,378.92,1015.10,-9,29.42,29.38,35.03,11.40,246.65,31.37,1015.10,-9,-9,163.80,0.70,384.58,2,363.63,2,20.95,0.65,0.70,33.50,-9
AOML_Brown,RB200306,252.747,09092003,17:56:06,26.267,-83.703,401.68,378.92,1015.09,-9,29.39,29.37,35.03,11.24,246.27,31.38,1015.09,-9,-9,138.50,1.60,385.00,2,363.63,2,21.37,0.64,1.60,10.00,-9
AOML_Brown,RB200306,252.751,09092003,18:00:46,26.267,-83.703,401.78,378.92,1015.18,-9,29.41,29.37,35.02,11.41,247.75,31.37,1015.18,-9,-9,170.00,1.00,384.84,2,363.63,2,21.21,0.64,1.00,40.60,-9
AOML_Brown,RB200306,252.762,09092003,18:17:06,26.267,-83.703,402.30,379.86,1015.09,-9,29.48,29.43,35.04,11.33,247.74,31.35,1015.09,-9,-9,200.60,3.89,385.18,2,364.17,2,21.01,0.64,3.89,71.00,-9
AOML_Brown,RB200306,252.765,09092003,18:21:46,26.267,-83.703,402.50,379.86,1014.91,-9,29.45,29.43,35.04,11.41,246.68,31.34,1014.91,-9,-9,200.20,3.69,385.74,2,364.17,2,21.57,0.65,3.69,70.00,-9
AOML_Brown,RB200306,252.768,09092003,18:26:06,26.267,-83.703,402.54,379.86,1014.80,-9,29.43,29.41,35.04,11.28,248.83,31.31,1014.80,-9,-9,178.40,1.50,385.70,2,364.17,2,21.53,0.64,1.50,49.00,-9
AOML_Brown,RB200306,252.771,09092003,18:30:46,26.267,-83.703,402.58,379.86,1014.76,-9,29.47,29.43,35.05,11.30,248.81,31.29,1014.76,-9,-9,183.80,2.40,385.36,2,364.17,2,21.19,0.65,2.40,54.80,-9
AOML_Brown,RB200306,252.783,09092003,18:47:06,26.267,-83.703,403.13,379.86,1014.72,-9,29.51,29.50,35.06,11.25,245.99,31.27,1014.72,-9,-9,196.20,1.70,386.37,2,364.17,2,22.20,0.63,1.70,55.70,-9
AOML_Brown,RB200306,252.786,09092003,18:51:46,26.267,-83.703,403.46,379.86,1014.74,-9,29.54,29.48,35.06,11.27,246.74,31.26,1014.74,-9,-9,161.00,0.50,385.91,2,364.17,2,21.74,0.64,0.50,31.50,-9
AOML_Brown,RB200306,252.789,09092003,18:56:06,26.267,-83.703,403.55,379.86,1014.75,-9,29.51,29.47,35.06,11.20,248.39,31.25,1014.75,-9,-9,150.80,1.60,386.29,2,364.17,2,22.12,0.65,1.60,21.90,-9
AOML_Brown,RB200306,252.792,09092003,19:00:46,26.267,-83.703,403.50,379.86,1014.77,-9,29.53,29.48,35.06,11.23,248.84,31.22,1014.77,-9,-9,215.20,2.20,386.18,2,364.17,2,22.01,0.65,2.20,84.90,-9
AOML_Brown,RB200306,252.804,09092003,19:17:06,26.267,-83.703,403.45,-999.99,1014.60,-9,29.55,29.52,35.08,11.13,247.50,31.23,1014.60,-9,-9,194.90,1.10,386.27,2,-999.99,4,-999.99,0.65,1.10,66.70,-9
AOML_Brown,RB200306,252.807,09092003,19:21:46,26.267,-83.703,404.00,-999.99,1014.50,-9,29.53,29.52,35.09,11.08,248.39,31.22,1014.50,-9,-9,240.90,1.40,387.00,2,-999.99,4,-999.99,0.65,1.40,111.50,-9
AOML_Brown,RB200306,252.810,09092003,19:26:06,26.267,-83.703,404.31,-999.99,1014.50,-9,29.56,29.54,35.09,11.15,248.82,31.21,1014.50,-9,-9,130.90,1.10,387.17,2,-999.99,4,-999.99,0.65,1.10,1.30,-9
AOML_Brown,RB200306,252.813,09092003,19:30:46,26.267,-83.703,404.59,-999.99,1014.47,-9,29.55,29.53,35.09,11.10,248.60,31.20,1014.47,-9,-9,199.00,3.60,387.39,2,-999.99,4,-999.99,0.64,3.60,75.40,-9
AOML_Brown,RB200306,252.824,09092003,19:47:07,26.267,-83.703,404.86,-999.99,1014.27,-9,29.60,29.55,35.10,11.11,246.84,31.19,1014.27,-9,-9,211.90,2.10,387.14,2,-999.99,4,-999.99,0.65,2.10,82.10,-9
AOML_Brown,RB200306,252.828,09092003,19:51:47,26.267,-83.703,405.10,-999.99,1014.16,-9,29.58,29.56,35.10,11.07,246.14,31.20,1014.16,-9,-9,228.50,0.70,387.75,2,-999.99,4,-999.99,0.64,0.70,98.80,-9
AOML_Brown,RB200306,252.831,09092003,19:56:07,26.267,-83.703,405.30,-999.99,1014.13,-9,29.60,29.55,35.10,11.02,246.00,31.18,1014.13,-9,-9,199.70,3.40,387.54,2,-999.99,4,-999.99,0.65,3.40,70.50,-9
AOML_Brown,RB200306,252.834,09092003,20:00:47,26.267,-83.703,405.32,-999.99,1014.06,-9,29.56,29.54,35.11,11.10,246.70,31.17,1014.06,-9,-9,171.80,1.50,388.01,2,-999.99,4,-999.99,0.64,1.50,96.40,-9
AOML_Brown,RB200306,252.845,09092003,20:17:07,26.267,-83.703,404.77,381.00,1013.86,-9,29.58,29.51,35.10,11.03,245.76,31.20,1013.86,-9,-9,124.20,1.10,386.68,2,364.84,2,21.84,0.65,1.10,353.10,-9
AOML_Brown,RB200306,252.848,09092003,20:21:47,26.267,-83.703,404.75,381.00,1013.93,-9,29.56,29.52,35.10,10.96,247.37,31.18,1013.93,-9,-9,172.00,1.30,387.07,2,364.84,2,22.23,0.65,1.30,43.20,-9
AOML_Brown,RB200306,252.851,09092003,20:26:07,26.267,-83.703,404.90,381.00,1013.89,-9,29.59,29.53,35.11,10.93,247.77,31.19,1013.89,-9,-9,179.80,2.10,386.99,2,364.84,2,22.15,0.65,2.10,52.80,-9
AOML_Brown,RB200306,252.855,09092003,20:30:47,26.267,-83.703,405.01,381.00,1014.02,-9,29.58,29.55,35.12,10.99,250.11,31.17,1014.02,-9,-9,163.80,0.80,387.46,2,364.84,2,22.62,0.65,0.80,23.10,-9
AOML_Brown,RB200306,252.866,09092003,20:47:07,26.267,-83.703,405.45,381.00,1014.14,-9,29.60,29.56,35.13,11.10,244.81,31.19,1014.14,-9,-9,148.80,4.80,387.75,2,364.84,2,22.91,0.64,4.80,19.20,-9
AOML_Brown,RB200306,252.869,09092003,20:51:47,26.267,-83.703,405.65,381.00,1013.92,-9,29.60,29.57,35.15,10.96,246.40,31.19,1013.92,-9,-9,209.40,1.10,387.98,2,364.84,2,23.14,0.64,1.10,79.00,-9
AOML_Brown,RB200306,252.872,09092003,20:56:07,26.267,-83.703,405.93,381.00,1013.87,-9,29.61,29.56,35.14,10.93,247.10,31.17,1013.87,-9,-9,188.10,1.90,388.02,2,364.84,2,23.18,0.65,1.90,58.50,-9
AOML_Brown,RB200306,252.876,09092003,21:00:47,26.267,-83.703,405.96,381.00,1013.83,-9,29.60,29.58,35.15,11.02,247.72,31.18,1013.83,-9,-9,240.00,2.10,388.42,2,364.84,2,23.58,0.64,2.10,110.50,-9
AOML_Brown,RB200306,252.887,09092003,21:17:07,26.267,-83.703,406.10,377.33,1014.01,-9,29.61,29.55,35.15,10.94,247.70,31.20,1014.01,-9,-9,129.80,0.20,388.11,2,361.39,2,26.72,0.65,0.20,359.30,-9
AOML_Brown,RB200306,252.890,09092003,21:21:47,26.267,-83.703,405.86,377.33,1014.17,-9,29.58,29.54,35.14,10.86,246.65,31.21,1014.17,-9,-9,244.30,1.50,388.17,2,361.39,2,26.78,0.65,1.50,70.90,-9
AOML_Brown,RB200306,252.893,09092003,21:26:07,26.267,-83.703,405.70,377.33,1014.23,-9,29.56,29.53,35.14,10.92,247.78,31.21,1014.23,-9,-9,195.50,1.30,388.20,2,361.39,2,26.81,0.65,1.30,65.30,-9
AOML_Brown,RB200306,252.896,09092003,21:30:47,26.267,-83.703,405.55,377.33,1014.02,-9,29.57,29.54,35.14,10.74,249.97,31.19,1014.02,-9,-9,151.20,5.79,388.00,2,361.39,2,26.61,0.66,5.79,21.70,-9
AOML_Brown,RB200306,252.908,09092003,21:47:07,26.267,-83.703,405.09,377.33,1013.84,-9,29.55,29.51,35.13,10.81,243.99,31.22,1013.84,-9,-9,153.50,3.60,387.38,2,361.39,2,25.99,0.65,3.60,23.80,-9
AOML_Brown,RB200306,252.911,09092003,21:51:47,26.267,-83.703,405.13,377.33,1013.89,-9,29.54,29.49,35.12,10.82,246.23,31.21,1013.89,-9,-9,247.30,0.80,387.35,2,361.39,2,25.96,0.65,0.80,24.30,-9
AOML_Brown,RB200306,252.914,09092003,21:56:07,26.267,-83.703,404.91,377.33,1013.86,-9,29.53,29.48,35.12,10.75,245.02,31.22,1013.86,-9,-9,150.00,5.59,387.11,2,361.39,2,25.72,0.65,5.59,22.20,-9
AOML_Brown,RB200306,252.917,09092003,22:00:47,26.267,-83.703,404.65,377.33,1013.84,-9,29.51,29.47,35.12,10.87,248.59,31.20,1013.84,-9,-9,105.40,1.20,386.97,2,361.39,2,25.58,0.65,1.20,337.20,-9
AOML_Brown,RB200306,252.929,09092003,22:17:07,26.267,-83.703,404.15,370.70,1013.87,-9,29.51,29.46,35.12,10.79,246.94,31.21,1013.87,-9,-9,145.90,5.39,386.43,2,355.11,2,31.32,0.65,5.39,15.00,-9
AOML_Brown,RB200306,252.932,09092003,22:21:47,26.267,-83.703,404.11,370.70,1013.85,-9,29.51,29.45,35.12,10.72,249.07,31.21,1013.85,-9,-9,158.00,6.09,386.22,2,355.11,2,31.11,0.66,6.09,29.50,-9
AOML_Brown,RB200306,252.935,09092003,22:26:07,26.267,-83.703,404.22,370.70,1013.96,-9,29.50,29.47,35.12,10.82,250.01,31.19,1013.96,-9,-9,147.40,6.59,386.85,2,355.11,2,31.74,0.66,6.59,18.00,-9
AOML_Brown,RB200306,252.938,09092003,22:30:47,26.267,-83.703,404.30,370.70,1013.88,-9,29.50,29.48,35.12,10.79,248.46,31.19,1013.88,-9,-9,143.40,6.19,386.99,2,355.11,2,31.89,0.65,6.19,16.30,-9
AOML_Brown,RB200306,252.949,09092003,22:47:07,26.267,-83.703,404.15,370.70,1013.92,-9,29.50,29.45,35.11,10.75,245.30,31.19,1013.92,-9,-9,162.20,4.10,386.50,2,355.11,2,31.39,0.65,4.10,33.10,-9
AOML_Brown,RB200306,252.953,09092003,22:51:47,26.267,-83.703,404.30,370.70,1013.94,-9,29.48,29.46,35.12,10.74,245.30,31.20,1013.94,-9,-9,152.90,5.89,386.99,2,355.11,2,31.89,0.65,5.89,24.90,-9
AOML_Brown,RB200306,252.956,09092003,22:56:07,26.267,-83.703,404.52,370.70,1013.96,-9,29.51,29.47,35.12,10.75,248.97,31.20,1013.96,-9,-9,142.30,7.19,386.87,2,355.11,2,31.76,0.64,7.19,12.90,-9
AOML_Brown,RB200306,252.959,09092003,23:00:47,26.267,-83.703,404.68,370.70,1014.01,-9,29.50,29.47,35.12,10.87,249.13,31.18,1014.01,-9,-9,155.20,5.79,387.31,2,355.11,2,32.21,0.64,5.79,25.40,-9
AOML_Brown,RB200306,252.970,09092003,23:17:07,26.267,-83.703,404.03,373.07,1014.20,-9,29.46,29.41,35.10,10.86,249.22,31.22,1014.20,-9,-9,154.50,6.09,386.40,2,357.55,2,28.85,0.63,6.09,24.70,-9
AOML_Brown,RB200306,252.973,09092003,23:21:47,26.267,-83.703,403.83,373.07,1014.30,-9,29.45,29.40,35.10,10.83,248.69,31.22,1014.30,-9,-9,152.30,3.10,386.32,2,357.55,2,28.77,0.62,3.10,24.50,-9
AOML_Brown,RB200306,252.976,09092003,23:26:07,26.267,-83.703,403.68,373.07,1014.38,-9,29.44,29.40,35.10,10.75,249.80,31.22,1014.38,-9,-9,262.40,5.00,386.35,2,357.55,2,28.79,0.63,5.00,9.00,-9
AOML_Brown,RB200306,252.980,09092003,23:30:47,26.267,-83.703,403.70,373.07,1014.28,-9,29.45,29.39,35.10,10.74,250.58,31.20,1014.28,-9,-9,204.40,3.69,386.06,2,357.55,2,28.51,0.63,3.69,73.50,-9
AOML_Brown,RB200306,252.991,09092003,23:47:07,26.267,-83.703,403.15,373.07,1014.52,-9,29.43,29.38,35.09,10.80,246.65,31.23,1014.52,-9,-9,238.50,0.70,385.79,2,357.55,2,28.24,0.63,0.70,107.90,-9
AOML_Brown,RB200306,252.994,09092003,23:51:47,26.267,-83.703,403.22,373.07,1014.38,-9,29.41,29.38,35.08,10.81,246.41,31.23,1014.38,-9,-9,227.30,1.90,386.01,2,357.55,2,28.46,0.63,1.90,97.70,-9
AOML_Brown,RB200306,252.997,09092003,23:56:07,26.267,-83.703,403.11,373.07,1014.45,-9,29.42,29.37,35.08,10.84,247.13,31.24,1014.45,-9,-9,192.70,2.90,385.74,2,357.55,2,28.19,0.63,2.90,65.10,-9
AOML_Brown,RB200306,253.001,10092003,00:00:47,26.267,-83.703,403.02,373.07,1014.55,-9,29.42,29.37,35.08,10.78,249.21,31.22,1014.55,-9,-9,154.20,3.69,385.70,2,357.55,2,28.15,0.63,3.69,22.50,-9
AOML_Brown,RB200306,253.012,10092003,00:17:07,26.267,-83.703,402.36,372.98,1014.67,-9,29.39,29.34,35.08,10.82,249.19,31.25,1014.67,-9,-9,155.00,3.69,385.08,2,357.74,2,27.35,0.63,3.69,43.80,-9
AOML_Brown,RB200306,253.015,10092003,00:21:47,26.267,-83.703,402.30,372.98,1014.72,-9,29.36,29.34,35.08,10.83,246.35,31.26,1014.72,-9,-9,168.20,2.70,385.56,2,357.74,2,27.82,0.63,2.70,39.30,-9
AOML_Brown,RB200306,253.018,10092003,00:26:07,26.267,-83.703,402.32,372.98,1014.63,-9,29.36,29.33,35.08,10.87,251.06,31.24,1014.63,-9,-9,183.40,0.50,385.30,2,357.74,2,27.56,0.63,0.50,53.80,-9
AOML_Brown,RB200306,253.021,10092003,00:30:47,26.267,-83.703,402.16,372.98,1014.62,-9,29.36,29.32,35.08,10.81,251.39,31.24,1014.62,-9,-9,159.50,5.29,385.02,2,357.74,2,27.29,0.63,5.29,29.20,-9
AOML_Brown,RB200306,253.033,10092003,00:47:07,26.267,-83.703,401.42,372.98,1014.80,-9,29.36,29.30,35.07,10.78,247.16,31.25,1014.80,-9,-9,158.30,2.29,384.17,2,357.74,2,26.43,0.63,2.29,28.10,-9
AOML_Brown,RB200306,253.036,10092003,00:51:47,26.267,-83.703,401.31,372.98,1014.83,-9,29.34,29.30,35.07,10.83,246.78,31.26,1014.83,-9,-9,157.80,3.49,384.30,2,357.74,2,26.57,0.64,3.49,26.50,-9
AOML_Brown,RB200306,253.039,10092003,00:56:07,26.267,-83.703,401.35,372.98,1014.89,-9,29.32,29.30,35.07,10.76,249.59,31.24,1014.89,-9,-9,155.30,6.29,384.69,2,357.74,2,26.95,0.63,6.29,25.70,-9
AOML_Brown,RB200306,253.042,10092003,01:00:47,26.267,-83.703,401.29,372.98,1014.83,-9,29.35,29.30,35.07,10.82,248.64,31.24,1014.83,-9,-9,149.50,4.39,384.15,2,357.74,2,26.42,0.63,4.39,19.20,-9
AOML_Brown,RB200306,253.054,10092003,01:17:08,26.267,-83.704,400.83,370.04,1014.93,-9,29.33,29.28,35.06,10.82,246.89,31.24,1014.93,-9,-9,155.00,5.59,383.78,2,355.16,2,28.62,0.63,5.59,26.90,-9
AOML_Brown,RB200306,253.057,10092003,01:21:48,26.267,-83.703,400.72,370.04,1015.05,-9,29.32,29.27,35.07,10.82,249.93,31.25,1015.05,-9,-9,154.80,3.60,383.73,2,355.16,2,28.56,0.63,3.60,26.50,-9
AOML_Brown,RB200306,253.060,10092003,01:26:08,26.267,-83.703,400.66,370.04,1015.07,-9,29.33,29.27,35.06,10.76,251.44,31.24,1015.07,-9,-9,155.40,5.39,383.57,2,355.16,2,28.41,0.63,5.39,24.10,-9
AOML_Brown,RB200306,253.063,10092003,01:30:48,26.267,-83.703,400.61,370.04,1015.13,-9,29.32,29.27,35.06,10.80,248.39,31.23,1015.13,-9,-9,139.00,5.99,383.63,2,355.16,2,28.46,0.63,5.99,10.10,-9
AOML_Brown,RB200306,253.074,10092003,01:47:08,26.261,-83.700,400.20,370.04,1015.54,-9,29.37,29.32,35.05,10.70,247.23,31.25,1015.54,-9,-9,279.50,5.29,383.45,2,355.16,2,28.28,0.63,5.32,8.04,-9
AOML_Brown,RB200306,253.078,10092003,01:51:48,26.259,-83.692,400.46,370.04,1015.63,-9,29.38,29.32,35.06,10.72,247.13,31.24,1015.63,-9,-9,293.40,6.89,383.60,2,355.16,2,28.44,0.63,6.52,12.13,-9
AOML_Brown,RB200306,253.081,10092003,01:56:08,26.256,-83.684,400.46,370.04,1015.67,-9,29.34,29.28,35.07,10.73,249.28,31.24,1015.67,-9,-9,296.40,6.79,383.61,2,355.16,2,28.45,0.64,6.10,18.88,-9
AOML_Brown,RB200306,253.084,10092003,02:00:48,26.252,-83.682,400.46,370.04,1015.79,-9,29.33,29.29,35.08,10.71,248.60,31.22,1015.79,-9,-9,74.30,7.89,383.95,2,355.16,2,28.79,0.63,7.64,26.59,-9
AOML_Brown,RB200306,253.095,10092003,02:17:08,26.256,-83.716,400.76,368.28,1015.65,-9,29.41,29.23,34.98,10.80,249.23,31.23,1015.65,-9,-9,84.00,8.29,382.27,2,353.67,2,28.60,0.63,8.61,14.93,-9
AOML_Brown,RB200306,253.098,10092003,02:21:48,26.256,-83.725,399.25,368.28,1015.65,-9,29.23,29.16,34.83,10.69,249.90,31.21,1015.65,-9,-9,90.90,6.89,382.45,2,353.67,2,28.78,0.64,7.61,23.84,-9
AOML_Brown,RB200306,253.101,10092003,02:26:08,26.256,-83.733,397.48,368.28,1015.58,-9,29.17,29.11,34.74,10.89,250.92,31.21,1015.58,-9,-9,92.10,6.09,380.80,2,353.67,2,27.13,0.64,6.88,24.08,-9
AOML_Brown,RB200306,253.105,10092003,02:30:48,26.257,-83.741,396.11,368.28,1015.57,-9,29.17,29.11,34.69,10.94,250.76,31.19,1015.57,-9,-9,89.20,6.29,379.48,2,353.67,2,25.81,0.64,6.88,21.44,-9
AOML_Brown,RB200306,253.116,10092003,02:47:08,26.258,-83.768,394.46,368.28,1015.61,-9,29.22,29.19,34.67,10.87,246.50,31.19,1015.61,-9,-9,70.10,6.29,378.39,2,353.67,2,24.73,0.65,5.95,3.85,-9
AOML_Brown,RB200306,253.119,10092003,02:51:48,26.258,-83.776,395.06,368.28,1015.60,-9,29.25,29.25,34.68,10.79,247.69,31.18,1015.60,-9,-9,81.90,5.69,379.25,2,353.67,2,25.58,0.66,5.95,20.07,-9
AOML_Brown,RB200306,253.122,10092003,02:56:08,26.258,-83.783,395.80,368.28,1015.78,-9,29.27,29.27,34.71,10.73,247.74,31.18,1015.78,-9,-9,88.60,5.09,380.11,2,353.67,2,26.44,0.64,5.72,23.47,-9
AOML_Brown,RB200306,253.126,10092003,03:00:48,26.259,-83.791,396.46,368.28,1015.58,-9,29.32,29.27,34.76,10.78,248.30,31.17,1015.58,-9,-9,81.90,8.49,379.88,2,353.67,2,26.21,0.65,8.55,7.36,-9
AOML_Brown,RB200306,253.137,10092003,03:17:08,26.260,-83.823,398.08,368.31,1015.74,-9,29.22,29.19,34.95,10.74,248.03,31.17,1015.74,-9,-9,62.60,7.19,381.84,2,353.65,2,28.19,0.65,6.41,5.85,-9
AOML_Brown,RB200306,253.140,10092003,03:21:48,26.261,-83.834,398.72,368.31,1015.74,-9,29.19,29.09,35.06,10.83,248.91,31.18,1015.74,-9,-9,80.40,7.39,381.49,2,353.65,2,27.84,0.66,7.73,19.97,-9
AOML_Brown,RB200306,253.143,10092003,03:26:08,26.261,-83.844,398.76,368.31,1015.72,-9,29.16,29.17,34.96,10.74,250.80,31.15,1015.72,-9,-9,78.80,7.79,383.10,2,353.65,2,29.45,0.67,7.98,19.11,-9
AOML_Brown,RB200306,253.146,10092003,03:30:48,26.261,-83.854,398.85,368.31,1015.67,-9,29.21,29.22,34.93,10.73,251.08,31.15,1015.67,-9,-9,73.90,8.29,383.08,2,353.65,2,29.42,0.65,8.09,16.21,-9
AOML_Brown,RB200306,253.158,10092003,03:47:08,26.263,-83.891,397.14,368.31,1015.62,-9,29.31,29.21,34.68,10.91,243.30,31.15,1015.62,-9,-9,74.80,9.09,379.88,2,353.65,2,26.23,0.65,8.88,17.60,-9
AOML_Brown,RB200306,253.161,10092003,03:51:48,26.263,-83.901,395.36,368.31,1015.57,-9,29.20,29.14,34.53,10.72,245.63,31.16,1015.57,-9,-9,74.80,7.09,378.77,2,353.65,2,25.12,0.65,7.13,24.29,-9
AOML_Brown,RB200306,253.164,10092003,03:56:08,26.264,-83.911,393.66,368.31,1015.60,-9,29.19,29.13,34.43,10.71,248.22,31.15,1015.60,-9,-9,74.80,8.99,377.25,2,353.65,2,23.60,0.65,8.81,16.95,-9
AOML_Brown,RB200306,253.167,10092003,04:00:48,26.265,-83.922,392.33,368.31,1015.63,-9,29.18,29.19,34.33,10.73,247.43,31.14,1015.63,-9,-9,71.90,8.29,376.85,2,353.65,2,23.20,0.66,7.96,17.32,-9
AOML_Brown,RB200306,253.179,10092003,04:17:08,26.266,-83.967,390.97,367.90,1015.55,-9,29.33,29.29,33.88,10.67,248.56,31.16,1015.55,-9,-9,63.70,6.89,374.66,2,353.17,2,21.49,0.66,6.55,26.57,-9
AOML_Brown,RB200306,253.182,10092003,04:21:48,26.267,-83.981,389.04,367.90,1015.54,-9,29.30,29.25,33.77,10.71,250.75,31.16,1015.54,-9,-9,65.40,8.29,372.76,2,353.17,2,19.59,0.66,7.68,16.65,-9
AOML_Brown,RB200306,253.185,10092003,04:26:08,26.268,-83.995,387.13,367.90,1015.42,-9,29.27,29.23,33.71,10.75,249.77,31.16,1015.42,-9,-9,59.30,7.49,371.01,2,353.17,2,17.85,0.67,6.46,10.01,-9
AOML_Brown,RB200306,253.188,10092003,04:30:48,26.268,-84.006,385.90,367.90,1015.40,-9,29.23,29.18,33.63,10.70,252.26,31.14,1015.40,-9,-9,76.80,7.19,369.74,2,353.17,2,16.57,0.68,7.32,22.19,-9
AOML_Brown,RB200306,253.199,10092003,04:47:08,26.270,-84.042,382.53,367.90,1015.44,-9,29.14,29.08,33.28,10.69,245.22,31.17,1015.44,-9,-9,87.50,6.19,366.46,2,353.17,2,13.29,0.68,6.73,34.18,-9
AOML_Brown,RB200306,253.203,10092003,04:51:48,26.270,-84.046,382.03,367.90,1015.38,-9,29.11,29.07,33.23,10.79,247.11,31.16,1015.38,-9,-9,125.90,1.00,366.28,2,353.17,2,13.12,0.67,1.28,57.86,-9
AOML_Brown,RB200306,253.206,10092003,04:56:08,26.269,-84.047,381.86,367.90,1015.27,-9,29.12,29.11,33.31,10.76,249.34,31.16,1015.27,-9,-9,8.00,5.49,366.50,2,353.17,2,13.33,0.68,4.99,22.82,-9
AOML_Brown,RB200306,253.209,10092003,05:00:48,26.270,-84.046,382.24,367.90,1015.33,-9,29.10,29.08,33.27,10.85,248.05,31.15,1015.33,-9,-9,33.50,5.19,366.68,2,353.17,2,13.52,0.67,4.69,48.77,-9
AOML_Brown,RB200306,253.220,10092003,05:17:08,26.271,-84.061,382.24,368.20,1015.17,-9,29.16,29.13,33.22,10.78,247.73,31.17,1015.17,-9,-9,65.40,6.69,366.54,2,353.30,2,13.25,0.67,6.09,28.99,-9
AOML_Brown,RB200306,253.223,10092003,05:21:48,26.273,-84.068,383.06,368.20,1015.10,-9,29.17,29.15,33.19,10.93,249.41,31.18,1015.10,-9,-9,74.40,6.29,367.36,2,353.30,2,14.06,0.67,6.19,20.03,-9
AOML_Brown,RB200306,253.226,10092003,05:26:08,26.273,-84.077,383.94,368.20,1015.11,-9,29.21,29.17,33.17,10.73,251.11,31.16,1015.11,-9,-9,74.40,4.50,367.94,2,353.30,2,14.65,0.66,5.13,36.04,-9
AOML_Brown,RB200306,253.230,10092003,05:30:48,26.279,-84.082,384.46,368.20,1014.95,-9,29.20,29.19,33.17,10.87,251.23,31.16,1014.95,-9,-9,1.40,9.09,368.74,2,353.30,2,15.44,0.66,5.23,46.33,-9
AOML_Brown,RB200306,253.241,10092003,05:47:08,26.282,-84.056,384.03,368.20,1015.00,-9,29.13,29.11,33.26,10.73,245.84,31.16,1015.00,-9,-9,89.00,5.69,368.26,2,353.30,2,14.96,0.66,6.50,30.01,-9
AOML_Brown,RB200306,253.244,10092003,05:51:48,26.283,-84.066,383.96,368.20,1015.01,-9,29.16,29.16,33.24,10.66,246.38,31.17,1015.01,-9,-9,89.60,7.29,368.41,2,353.30,2,15.11,0.66,8.18,30.24,-9
AOML_Brown,RB200306,253.247,10092003,05:56:08,26.284,-84.076,384.85,368.20,1015.05,-9,29.18,29.13,33.19,10.72,247.49,31.15,1015.05,-9,-9,78.60,5.69,368.65,2,353.30,2,15.35,0.66,6.15,31.02,-9
AOML_Brown,RB200306,253.251,10092003,06:00:48,26.280,-84.084,384.98,368.20,1014.94,-9,29.18,29.11,33.20,10.65,246.99,31.15,1014.94,-9,-9,253.30,3.40,368.53,2,353.30,2,15.23,0.66,5.66,37.29,-9
AOML_Brown,RB200306,253.262,10092003,06:17:08,26.276,-84.054,385.05,368.34,1014.73,-9,29.16,29.10,33.27,10.69,246.29,31.16,1014.73,-9,-9,351.20,7.99,368.67,2,353.34,2,15.34,0.67,5.12,34.79,-9
AOML_Brown,RB200306,253.265,10092003,06:21:48,26.281,-84.052,384.08,368.34,1014.69,-9,29.13,29.09,33.29,10.67,248.01,31.17,1014.69,-9,-9,48.30,9.29,367.93,2,353.34,2,14.59,0.67,7.79,49.26,-9
AOML_Brown,RB200306,253.268,10092003,06:26:08,26.286,-84.057,383.73,368.34,1014.86,-9,29.14,29.12,33.26,10.69,249.97,31.17,1014.86,-9,-9,79.60,7.49,367.90,2,353.34,2,14.56,0.67,7.52,35.14,-9
AOML_Brown,RB200306,253.271,10092003,06:30:48,26.285,-84.065,384.43,368.34,1014.81,-9,29.18,29.14,33.27,10.72,251.42,31.15,1014.81,-9,-9,260.50,0.10,368.29,2,353.34,2,14.95,0.67,3.00,40.93,-9
AOML_Brown,RB200306,253.283,10092003,06:47:08,26.272,-84.051,384.23,368.34,1014.30,-9,29.14,29.08,33.27,10.70,245.81,31.16,1014.30,-9,-9,332.00,7.69,367.66,2,353.34,2,14.32,0.67,4.69,36.47,-9
AOML_Brown,RB200306,253.286,10092003,06:51:48,26.273,-84.038,383.37,368.34,1014.20,-9,29.11,29.04,33.27,10.56,248.02,31.15,1014.20,-9,-9,338.10,8.99,366.79,2,353.34,2,13.45,0.67,4.58,41.90,-9
AOML_Brown,RB200306,253.289,10092003,06:56:08,26.273,-84.025,382.42,368.34,1014.11,-9,29.07,29.05,33.36,10.68,245.32,31.15,1014.11,-9,-9,337.80,9.09,366.52,2,353.34,2,13.18,0.67,4.70,42.33,-9
AOML_Brown,RB200306,253.292,10092003,07:00:48,26.272,-84.011,382.14,368.34,1014.14,-9,29.11,29.12,33.51,10.62,247.31,31.13,1014.14,-9,-9,334.60,9.09,366.50,2,353.34,2,13.16,0.68,4.92,39.09,-9
AOML_Brown,RB200306,253.304,10092003,07:17:08,26.269,-83.960,385.03,368.85,1013.88,-9,29.23,29.21,33.86,10.64,245.41,31.15,1013.88,-9,-9,339.00,8.39,368.73,2,353.50,2,15.23,0.67,4.03,43.20,-9
AOML_Brown,RB200306,253.307,10092003,07:21:49,26.269,-83.945,386.87,368.85,1013.83,-9,29.27,29.22,34.06,10.65,246.81,31.15,1013.83,-9,-9,338.40,9.79,370.05,2,353.50,2,16.55,0.66,5.35,45.66,-9